Location: Arboucave
(43.6130°N, 0.4343°W)
Time: 12:55:29
(UTC+00:00)

Cosmos 1862 - Pass Details

Date: 17 November 2025
Orbit: 473 x 485 km, 82.5° (Epoch: 11 December)

Event Time Altitude Azimuth Distance (km) Brightness Sun altitude
Rises 18:17:00 0° 352° (N) 2,540 6.7 -18.4°
Reaches altitude 10° 18:19:06 10° 354° (N) 1,659 5.7 -18.8°
Maximum altitude 18:22:44 80° 82° (E) 493 2.9 -19.5°
Drops below altitude 10° 18:26:21 10° 169° (S) 1,653 5.7 -20.1°
Sets 18:28:26 0° 171° (S) 2,530 6.7 -20.5°
